FLOCK 3P-48

Last updated on Wed Feb 14 2018 16:20:31 GMT+0000 (Coordinated Universal Time)

1 42006U 17008BL 18045.47420905 .00001331 00000-0 58058-4 0 9995 2 42006 97.4664 111.0858 0009664 86.2965 273.9377 15.23898572 55205
UTC large
Height (km)
Speed (km/s)
/
Latitude / Longitude
Inclination (degrees)
Orbital Period (minutes)
Azimuth
Elevation
Range (km)
Doppler Factor

Next 0 passes for location: London (51.5072 / 0.1276)

Sorry there are no passes over London.